Vorticity
7 7 7 7 7 7 7 8 8 9 9 9 10 8 7 8 10 10 8 8 9 8 10 10 12 12 8 9 9 4 5 3 4 5 5 6 2 6 2 5 7 0 28
6 5 5 5 5 6 6 6 6 6 7 8 9 9 10 10 10 9 11 10 10 8 8 9 10 11 13 9 9 8 2 6 4 4 5 4 6 6 4 1 4 3 7
3 3 6 7 7 8 8 7 6 7 6 7 8 9 9 10 10 11 12 10 9 11 10 8 9 10 11 14 10 10 7 4 5 3 4 5 6 3 6 4 3 12 4
1 3 6 8 8 7 7 7 7 6 7 7 7 7 8 9 11 12 12 13 14 10 9 11 9 8 9 12 15 11 9 7 4 7 3 4 4 5 7 3 4 6 4
3 7 10 9 10 9 9 10 12 10 9 6 8 9 10 10 11 12 13 16 15 14 14 11 11 9 9 10 12 14 10 9 5 4 7 4 5 4 3 5 2 2 5
9 11 11 11 12 14 15 15 14 14 13 12 12 12 14 14 12 14 15 13 12 12 16 15 13 14 13 9 10 13 14 9 9 6 4 6 5 5 4 5 5 4 2
9 9 9 10 11 12 13 13 13 12 11 10 11 11 14 15 14 25 16 10 16 15 16 16 19 18 16 15 14 11 13 13 8 7 5 4 7 5 5 4 5 3 1
10 7 10 11 11 10 9 9 9 9 9 10 12 12 13 20 21 16 20 17 15 13 13 15 17 17 18 17 17 20 15 11 12 8 8 3 -2 12 5 7 5 6 3
10 11 12 9 8 8 8 8 9 9 9 10 9 11 17 17 21 28 21 14 14 14 14 17 18 22 16 13 13 12 13 13 11 11 6 10 5 -9 12 5 8 8 3
12 17 12 9 9 8 8 8 9 9 11 11 9 8 10 10 16 16 19 26 13 12 14 17 12 14 14 14 14 16 18 14 14 10 11 6 10 4 -10 14 2 8 8
15 11 9 9 9 9 10 11 11 11 10 11 11 2 4 3 4 8 14 15 28 17 14 17 17 16 17 14 13 13 16 17 15 14 10 10 6 11 9 1 6 2 10
10 11 10 10 9 9 10 12 11 10 10 10 10 10 10 5 3 4 3 8 19 30 15 13 19 18 18 19 16 14 15 17 18 16 12 10 9 7 11 4 4 10 3
9 7 6 8 9 10 11 11 10 10 10 10 11 8 7 8 7 8 5 3 5 16 25 18 10 14 18 20 19 15 16 14 19 21 18 14 10 8 9 13 3 -2 -3
5 7 8 10 10 10 10 10 10 10 11 11 10 9 10 10 9 7 6 4 2 0 6 8 24 19 10 11 19 20 18 16 17 17 20 18 13 8 9 10 11 7 13
7 8 10 10 10 10 10 10 10 10 11 11 10 10 11 10 10 10 10 7 6 5 4 3 5 14 25 18 11 14 18 19 17 18 18 19 17 12 11 13 11 4 -36
8 9 11 11 10 10 10 9 10 11 13 13 13 12 12 12 12 11 11 11 9 8 6 4 3 4 10 22 22 14 14 14 19 19 19 20 19 16 14 16 14 15 11
9 10 11 10 10 10 10 10 11 12 12 8 6 6 6 6 5 5 5 6 8 9 9 7 6 5 1 7 18 17 16 13 12 21 22 19 20 20 20 19 17 14 10
8 11 11 10 10 9 9 8 7 9 7 6 5 6 6 7 9 9 9 8 7 5 4 5 9 8 7 4 4 20 18 15 11 16 22 21 20 19 18 20 19 18 13
10 11 11 10 10 8 8 7 11 11 8 6 7 9 11 11 10 9 9 9 11 11 9 7 5 5 7 8 3 6 17 20 15 9 14 23 13 26 13 16 25 18 16
10 11 10 10 9 8 10 11 10 7 5 5 8 9 7 7 7 7 7 8 9 9 9 10 10 9 7 7 10 4 5 20 20 15 8 16 12 11 34 11 2 21 18
11 11 11 11 9 10 10 8 8 7 7 8 7 5 6 9 9 9 9 9 9 9 10 10 10 10 10 7 4 8 6 8 22 21 14 11 15 20 17 16 15 9 13
11 11 11 10 9 8 9 10 9 6 6 7 7 8 9 9 9 9 9 8 8 9 9 10 10 10 11 11 11 9 8 5 9 17 20 18 12 14 14 17 42 9 -0
12 11 10 8 9 10 11 8 5 6 6 6 6 7 7 8 8 8 9 9 9 8 9 9 10 10 9 13 12 11 15 5 8 16 17 18 15 15 14 33 9 7 17
11 11 9 9 11 11 9 6 5 5 7 8 6 6 6 7 8 9 8 9 8 7 7 8 9 10 11 13 14 12 9 14 6 3 14 14 20 16 15 17 14 23 24
11 10 8 11 11 10 8 5 4 5 9 6 6 6 6 8 10 11 11 11 11 9 9 8 10 12 11 11 11 14 9 9 13 8 4 8 20 18 18 13 16 18 22
11 9 10 11 10 9 7 4 4 8 7 5 5 6 10 12 12 11 10 9 9 9 8 9 10 11 11 11 11 11 11 15 6 12 12 3 -1 21 14 19 18 15 16
Height
3107 3105 3102 3099 3097 3094 3091 3089 3086 3083 3081 3078 3076 3074 3072 3070 3068 3066 3064 3064 3065 3065 3067 3068 3069 3072 3074 3076 3080 3082 3085 3090 3093 3095 3098 3100 3101 3102 3105 3107 3108 3111 3113
3103 3100 3097 3094 3091 3088 3085 3082 3079 3076 3074 3071 3070 3068 3065 3063 3060 3058 3056 3055 3055 3055 3056 3057 3059 3061 3064 3066 3069 3073 3076 3080 3084 3087 3090 3092 3095 3097 3098 3101 3103 3105 3107
3099 3096 3093 3089 3086 3083 3080 3076 3073 3069 3066 3064 3060 3059 3056 3054 3053 3050 3048 3046 3045 3045 3045 3046 3049 3050 3053 3056 3059 3063 3066 3070 3075 3078 3081 3084 3087 3090 3092 3094 3098 3100 3102
3093 3089 3086 3082 3078 3075 3072 3069 3065 3062 3058 3055 3054 3051 3048 3046 3043 3041 3038 3036 3036 3036 3034 3036 3038 3040 3041 3045 3048 3052 3056 3060 3064 3069 3072 3076 3079 3082 3085 3087 3090 3094 3096
3086 3083 3079 3075 3072 3068 3065 3062 3058 3054 3050 3047 3045 3042 3039 3036 3034 3031 3028 3026 3025 3023 3026 3026 3025 3027 3031 3033 3036 3041 3045 3049 3054 3058 3063 3067 3070 3073 3076 3079 3082 3085 3090
3082 3078 3074 3070 3066 3062 3059 3056 3054 3050 3044 3041 3038 3035 3031 3028 3025 3021 3020 3016 3013 3010 3013 3013 3014 3018 3020 3021 3024 3028 3033 3038 3043 3047 3052 3056 3060 3063 3068 3071 3075 3078 3080
3075 3071 3067 3063 3059 3055 3053 3050 3048 3044 3040 3035 3031 3029 3026 3020 3016 3015 3008 3006 3004 3002 3004 3003 3003 3003 3007 3010 3014 3017 3020 3024 3029 3034 3040 3044 3050 3054 3058 3062 3067 3071 3073
3068 3065 3061 3057 3054 3050 3048 3045 3042 3039 3034 3029 3025 3021 3020 3017 3013 3007 3003 2999 2995 2993 2993 2994 2994 2994 2995 2998 3001 3002 3007 3012 3017 3022 3028 3032 3037 3042 3047 3052 3057 3061 3065
3063 3059 3055 3051 3048 3046 3043 3040 3036 3035 3030 3026 3022 3018 3013 3011 3009 3004 2997 2992 2989 2987 2986 2986 2986 2987 2986 2986 2987 2988 2991 2997 3003 3008 3013 3019 3025 3031 3037 3042 3047 3051 3055
3057 3054 3050 3047 3044 3041 3040 3037 3033 3031 3027 3023 3019 3015 3011 3006 3003 3001 2995 2989 2984 2982 2981 2979 2976 2974 2975 2977 2977 2979 2981 2986 2991 2997 3002 3008 3014 3019 3025 3031 3037 3041 3044
3053 3050 3047 3043 3040 3036 3035 3033 3029 3026 3022 3020 3017 3014 3010 3005 3001 2997 2993 2988 2980 2978 2976 2973 2970 2970 2970 2970 2970 2972 2973 2977 2983 2988 2992 2997 3002 3008 3015 3020 3026 3031 3034
3048 3046 3043 3039 3037 3033 3030 3028 3025 3022 3018 3016 3014 3011 3007 3004 2999 2994 2991 2986 2980 2976 2972 2968 2967 2965 2966 2966 2965 2967 2966 2968 2972 2977 2982 2988 2991 2997 3004 3010 3015 3020 3025
3044 3044 3039 3036 3032 3029 3026 3024 3021 3018 3015 3013 3011 3008 3005 3001 2996 2992 2988 2986 2981 2975 2971 2968 2965 2963 2962 2960 2959 2960 2958 2959 2964 2967 2971 2976 2980 2985 2992 2998 3002 3007 3008
3040 3038 3036 3033 3029 3026 3022 3020 3018 3015 3013 3010 3007 3004 3002 2999 2994 2990 2986 2983 2981 2976 2971 2966 2963 2961 2958 2956 2955 2954 2952 2953 2955 2958 2961 2964 2968 2973 2978 2987 2991 2996 3001
3037 3034 3032 3030 3026 3022 3019 3017 3015 3013 3010 3008 3005 3002 2999 2996 2992 2988 2985 2981 2976 2972 2971 2967 2962 2959 2955 2952 2951 2948 2947 2946 2947 2948 2951 2953 2957 2961 2967 2974 2979 2985 2988
3032 3031 3028 3026 3022 3019 3017 3014 3013 3011 3009 3006 3003 3000 2997 2994 2991 2987 2984 2979 2974 2970 2967 2964 2961 2957 2954 2950 2947 2944 2942 2941 2939 2940 2942 2944 2946 2950 2955 2961 2967 2974 2978
3028 3027 3024 3021 3019 3017 3015 3012 3011 3009 3007 3004 3002 2999 2997 2993 2990 2987 2984 2980 2975 2969 2966 2963 2959 2956 2953 2949 2945 2941 2938 2936 2934 2933 2934 2935 2937 2940 2945 2951 2955 2962 2969
3023 3022 3019 3018 3016 3014 3013 3011 3010 3008 3005 3003 3000 2998 2995 2991 2988 2985 2982 2978 2974 2969 2964 2961 2958 2955 2951 2947 2943 2939 2936 2932 2929 2928 2927 2927 2929 2931 2935 2941 2945 2950 2958
3019 3017 3016 3014 3013 3011 3011 3009 3007 3006 3004 3001 2999 2995 2992 2989 2986 2983 2980 2976 2973 2969 2964 2959 2955 2951 2948 2945 2941 2936 2933 2929 2926 2924 2922 2921 2922 2924 2928 2932 2936 2940 2947
3014 3013 3012 3011 3010 3009 3008 3006 3005 3004 3002 2999 2996 2993 2990 2987 2983 2980 2977 2973 2970 2966 2962 2958 2954 2950 2946 2942 2938 2935 2930 2927 2923 2919 2918 2918 2917 2918 2920 2923 2929 2933 2935
3010 3009 3009 3007 3007 3006 3005 3004 3003 3002 2999 2996 2993 2990 2987 2984 2980 2977 2974 2970 2967 2963 2960 2956 2952 2948 2944 2941 2937 2932 2928 2923 2920 2917 2914 2913 2913 2912 2913 2916 2919 2923 2927
3005 3005 3005 3004 3004 3003 3003 3001 3000 2998 2996 2993 2991 2987 2984 2981 2978 2974 2971 2967 2963 2960 2956 2952 2949 2945 2941 2937 2933 2930 2926 2923 2918 2913 2910 2908 2907 2907 2907 2908 2909 2913 2916
3001 3001 3001 3001 3000 3000 2999 2998 2997 2995 2992 2991 2988 2984 2982 2979 2976 2972 2969 2965 2961 2957 2953 2950 2946 2942 2939 2935 2932 2928 2924 2920 2916 2912 2908 2905 2902 2901 2901 2900 2901 2903 2907
2997 2997 2997 2997 2997 2997 2996 2994 2993 2992 2990 2988 2985 2982 2980 2976 2974 2970 2966 2962 2958 2954 2950 2947 2943 2940 2936 2932 2928 2924 2921 2918 2914 2910 2906 2903 2900 2897 2896 2896 2895 2895 2897
2993 2993 2993 2993 2993 2993 2993 2991 2990 2989 2987 2984 2982 2980 2977 2974 2971 2967 2963 2959 2956 2952 2948 2944 2940 2937 2933 2928 2925 2922 2918 2915 2911 2908 2904 2901 2898 2895 2893 2892 2891 2891 2891
2988 2989 2989 2989 2990 2990 2989 2988 2987 2985 2983 2981 2979 2976 2974 2970 2967 2963 2960 2956 2953 2950 2946 2941 2937 2933 2929 2925 2922 2918 2915 2911 2908 2905 2902 2900 2896 2894 2892 2889 2888 2887 2886